Weather History for Orange, MA

Change the Weather History Date:

Monday, January 14, 2013

  Actual Average Record
Temperature  
Mean Temperature 44 °F -  
Max Temperature 53 °F 27 °F 57 °F (2005)
Min Temperature 35 °F 9 °F -9 °F (2004)
Degree Days  
Heating Degree Days 21    
Moisture  
Dew Point 40 °F    
Average Humidity 89    
Maximum Humidity 100    
Minimum Humidity 46    
Precipitation  
Precipitation 0.02 in - - ()
Sea Level Pressure  
Sea Level Pressure 30.01 in    
Wind  
Wind Speed 4 mph (SW)    
Max Wind Speed 15 mph    
Max Gust Speed 23 mph    
Visibility 4 miles    
Events Fog , Rain    
Averages and records for this station are not official NWS values.
T = Trace of Precipitation, MM = Missing Value Source: NWS Daily Summary

Daily Weather History Graph

Daily Weather History Graph

Search for Another Location

Airport:

Trip Planner

Search our weather history database for the weather conditions in past years. The results will help you decide how hot, cold, wet, or windy it might be!

Date:

Astronomy

Jan. 14, 2013 Rise Set
Actual Time 7:16 AM EST 4:40 PM EST
Civil Twilight 6:45 AM EST 5:11 PM EST
Nautical Twilight 6:10 AM EST 5:46 PM EST
Astronomical Twilight 5:36 AM EST 6:20 PM EST
Moon 8:43 AM EST (1/14) 8:28 PM EST (1/14)
Length of Visible Light 10h 26m
Length of Day
9h 23m
Waxing Crescent, 11% of the Moon is Illuminated
Jan 14
Waxing Crescent
Jan 18
First Quarter
Jan 26
Full
Feb 3
Last Quarter
Feb 10
New

Hourly Weather History & Observations

Time (EST) Temp. Windchill Dew Point Humidity Pressure Visibility Wind Dir Wind Speed Gust Speed Precip Events Conditions
12:52 AM 39.0 °F - 39.0 °F 100% 29.99 in 0.2 mi Calm Calm - N/A Fog Fog
1:52 AM 37.9 °F - 37.9 °F 100% 29.99 in 0.2 mi Calm Calm - N/A Fog Fog
2:27 AM 44.6 °F 40.2 °F 42.8 °F 93% 29.96 in 1.5 mi South 8.1 mph - N/A   Overcast
2:29 AM 44.6 °F 39.7 °F 42.8 °F 93% 29.96 in 3.0 mi South 9.2 mph - N/A   Overcast
2:47 AM 44.6 °F 40.2 °F 42.8 °F 93% 29.97 in 1.8 mi South 8.1 mph - N/A   Overcast
2:52 AM 44.1 °F 39.0 °F 44.1 °F 100% 29.98 in 1.2 mi South 9.2 mph - N/A   Overcast
3:01 AM 44.6 °F 42.2 °F 44.6 °F 100% 29.97 in 1.5 mi South 4.6 mph - N/A   Overcast
3:12 AM 44.6 °F 41.4 °F 44.6 °F 100% 29.96 in 0.8 mi South 5.8 mph - N/A   Overcast
3:14 AM 44.6 °F 42.2 °F 44.6 °F 100% 29.96 in 1.2 mi South 4.6 mph - N/A   Overcast
3:18 AM 44.6 °F 41.4 °F 44.6 °F 100% 29.96 in 2.0 mi SSW 5.8 mph - N/A   Overcast
3:27 AM 44.6 °F 41.4 °F 44.6 °F 100% 29.96 in 3.0 mi South 5.8 mph - N/A   Overcast
4:41 AM 44.6 °F 39.7 °F 44.6 °F 100% 29.96 in 2.0 mi South 9.2 mph - 0.00 in Rain Light Rain
4:50 AM 44.6 °F 42.2 °F 44.6 °F 100% 29.92 in 1.2 mi South 4.6 mph - 0.00 in   Overcast
4:52 AM 44.1 °F 41.5 °F 44.1 °F 100% 29.94 in 0.8 mi South 4.6 mph - 0.00 in   Overcast
5:08 AM 44.6 °F 40.7 °F 42.8 °F 93% 29.93 in 1.2 mi South 6.9 mph - N/A   Overcast
5:10 AM 44.6 °F 41.4 °F 42.8 °F 93% 29.93 in 2.0 mi South 5.8 mph - N/A   Overcast
5:18 AM 44.6 °F 40.7 °F 44.6 °F 100% 29.94 in 5.0 mi South 6.9 mph - 0.00 in Rain Light Rain
5:35 AM 44.6 °F 40.2 °F 44.6 °F 100% 29.94 in 2.0 mi South 8.1 mph - 0.01 in Rain Light Rain
5:52 AM 44.1 °F 38.6 °F 44.1 °F 100% 29.90 in 3.0 mi SSE 10.4 mph - 0.02 in Rain Light Rain
6:44 AM 44.6 °F 43.1 °F 44.6 °F 100% 29.92 in 4.0 mi West 3.5 mph - 0.00 in   Overcast
6:47 AM 44.6 °F - 42.8 °F 93% 29.92 in 1.5 mi Calm Calm - 0.00 in   Overcast
6:49 AM 42.8 °F - 42.8 °F 100% 29.92 in 0.8 mi Calm Calm - 0.00 in   Overcast
7:00 AM 44.6 °F 40.7 °F 44.6 °F 100% 29.91 in 1.2 mi SSE 6.9 mph - N/A   Overcast
7:02 AM 44.6 °F 40.7 °F 44.6 °F 100% 29.92 in 4.0 mi SSE 6.9 mph - N/A   Overcast
7:11 AM 44.6 °F 43.1 °F 44.6 °F 100% 29.92 in 10.0 mi Variable 3.5 mph - N/A   Overcast
7:18 AM 42.8 °F 41.1 °F 42.8 °F 100% 29.94 in 1.5 mi WNW 3.5 mph - N/A   Overcast
7:20 AM 42.8 °F 40.1 °F 42.8 °F 100% 29.95 in 1.0 mi WNW 4.6 mph - N/A   Overcast
7:28 AM 42.8 °F 41.1 °F 42.8 °F 100% 29.94 in 0.8 mi SSW 3.5 mph - N/A   Overcast
7:52 AM 39.9 °F - 39.9 °F 100% 29.97 in 0.2 mi Calm Calm - N/A Fog Fog
8:52 AM 39.9 °F - 39.9 °F 100% 30.00 in 0.2 mi Calm Calm - N/A Fog Fog
9:14 AM 41.0 °F - 39.2 °F 93% 30.01 in 0.2 mi Calm Calm - N/A Fog Fog
9:37 AM 42.8 °F - 42.8 °F 100% 30.01 in 0.2 mi Calm Calm - N/A Fog Fog
9:48 AM 42.8 °F - 42.8 °F 100% 30.02 in 0.2 mi Calm Calm - N/A Fog Fog
9:52 AM 42.1 °F - 42.1 °F 100% 30.03 in 0.2 mi Calm Calm - N/A Fog Fog
10:03 AM 42.8 °F - 42.8 °F 100% 30.02 in 0.2 mi Calm Calm - N/A Fog Fog
10:13 AM 42.8 °F - 42.8 °F 100% 30.01 in 0.2 mi Calm Calm - N/A Fog Fog
10:52 AM 44.1 °F - 44.1 °F 100% 30.01 in 0.2 mi Calm Calm - N/A Fog Fog
11:01 AM 48.2 °F - 46.4 °F 93% 30.00 in 2.0 mi Calm Calm - N/A   Clear
11:08 AM 48.2 °F - 48.2 °F 100% 30.00 in 10.0 mi Calm Calm - N/A   Clear
11:52 AM 53.1 °F - 42.1 °F 66% 30.02 in 10.0 mi WNW 8.1 mph - N/A   Clear
12:52 PM 52.0 °F - 37.0 °F 57% 30.05 in 10.0 mi West 15.0 mph 23.0 mph N/A   Clear
1:52 PM 50.0 °F - 34.0 °F 54% 30.08 in 10.0 mi WNW 9.2 mph - N/A   Clear
2:52 PM 48.9 °F - 28.9 °F 46% 30.12 in 10.0 mi WNW 12.7 mph - N/A   Clear
3:52 PM 46.0 °F 41.9 °F 28.9 °F 51% 30.14 in 10.0 mi NW 8.1 mph - N/A   Clear
4:52 PM 43.0 °F 37.2 °F 28.0 °F 56% 30.15 in 10.0 mi WNW 10.4 mph - N/A   Clear
5:52 PM 39.9 °F 34.5 °F 27.0 °F 60% 30.16 in 10.0 mi WNW 8.1 mph - N/A   Clear
6:52 PM 39.0 °F 34.8 °F 26.1 °F 60% 30.19 in 10.0 mi West 5.8 mph - N/A   Clear
7:52 PM 37.9 °F 32.7 °F 26.1 °F 62% 30.22 in 10.0 mi WNW 6.9 mph - N/A   Clear
8:52 PM 37.0 °F 31.6 °F 25.0 °F 62% 30.24 in 10.0 mi WNW 6.9 mph - N/A   Clear
9:52 PM 36.0 °F 33.3 °F 26.1 °F 67% 30.25 in 10.0 mi NW 3.5 mph - N/A   Clear
10:52 PM 35.1 °F 32.2 °F 25.0 °F 67% 30.27 in 10.0 mi WNW 3.5 mph - N/A   Clear
11:52 PM 35.1 °F 31.0 °F 24.1 °F 64% 30.27 in 10.0 mi WNW 4.6 mph - N/A   Partly Cloudy